Regional Weather Roundup
Issued by NWS Upton, NY

Current Version | Previous Version | Graphics & Text | Print | Product List | Glossary Off
Versions: 1 2 3 4 5 6 7 8 9 10 11 12 13 14 15 16 17 18 19 20 21 22 23 24 25 26 27 28 29 30 31 32 33 34 35 36 37 38 39 40 41 42 43 44 45 46 47 48 49 50

859
ASUS41 KOKX 202109
RWROKX

REGIONAL WEATHER ROUNDUP
NATIONAL WEATHER SERVICE NEW YORK NY
500 PM EDT THU JUL 20 2017

NOTE: "FAIR" INDICATES FEW OR NO CLOUDS BELOW 12,000 FEET WITH NO
SIGNIFICANT WEATHER AND/OR OBSTRUCTIONS TO VISIBILITY.

NYZ071-072-176-178-NJZ106-104-202200-
NEW YORK CITY METRO AREA

CITY           SKY/WX    TMP DP  RH WIND       PRES   REMARKS
Central Park   CLOUDY    90  67  46 VRB3      29.90F HX  93
Bronx Bot Gard   N/A     91  63  38 NW3       29.89S HX  92
LaGuardia APRT CLOUDY    94  72  48 SW10      29.85F HX 102
Kennedy INTL   PTSUNNY   87  77  72 S17       29.88F HX  99
Breezy Point     N/A     81 N/A N/A S10         N/A
Newark/Liberty CLOUDY    95  63  34 W17       29.87F HX  96
Teterboro      CLOUDY    94  66  39 W16       29.86S HX  97
$$

NYZ177-179-078>081-202200-
LONG ISLAND NEW YORK

CITY           SKY/WX    TMP DP  RH WIND       PRES   REMARKS
Jones Beach      N/A     82 N/A N/A S10         N/A
Matinecock PT    N/A     88 N/A N/A SW8         N/A
Farmingdale    PTSUNNY   87  73  62 SW12      29.88F HX  94
MacArthur/ISP  PTSUNNY   84  74  71 SW9       29.88F HX  91
Shirley        MOSUNNY   85  74  69 S12       29.90S HX  92
Mt Sinai Harb    N/A     90 N/A N/A SW7         N/A
Westhampton    MOSUNNY   84  71  65 S12       29.91F
East Hampton   FAIR      82  73  73 SW12      29.88F
Montauk          N/A     82  75  79 SW8       29.89F
$$

NYZ052-065-067-202200-
HUDSON VALLEY

CITY           SKY/WX    TMP DP  RH WIND       PRES   REMARKS
White Plains   MOSUNNY   91  64  40 NW8       29.89F HX  93
Larchmont Harb   N/A     84 N/A N/A S13         N/A
Croton O-T Hud   N/A     90 N/A N/A W5          N/A
Newburgh       MOSUNNY   90  72  55 W9        29.90F HX  96
Montgomery     MOSUNNY   88  68  51 W6        29.86F HX  91
Poughkeepsie   SUNNY     90  65  43 SW12      29.85F HX  92
Albany         CLOUDY    80  58  46 W9        29.90F
$$

NJZ001-105-106-008-010-013-015-019>022-104-202200-
NEW JERSEY

CITY           SKY/WX    TMP DP  RH WIND       PRES   REMARKS
Newark/Liberty CLOUDY    95  63  34 W17       29.87F HX  96
Teterboro      CLOUDY    94  66  39 W16       29.86S HX  97
Caldwell       PTSUNNY   92  64  39 W8        29.88F HX  93
Somerville     MOSUNNY   91  69  48 VRB3      29.86F HX  96
Linden         NOT AVBL
Perth Amboy      N/A     91 N/A N/A W15         N/A
Sussex         MOSUNNY   86  73  65 SW3       29.89F HX  93
Andover          N/A     86  70  58 SW6       29.90F HX  90
Trenton        SUNNY     94  68  42 W9        29.88F HX  98
Millville      PTSUNNY   89  77  67 S5        29.92F HX 101
Atlantic City  CLOUDY    94  70  45 W12G23    29.91F HX 100
Wrightstown    MOSUNNY   95  67  39 W14       29.85F HX  99
Toms River     CLOUDY    97  67  37 W13G23    29.89F HX 101
Belmar         CLOUDY    94  68  42 W12       29.89F HX  98
$$

PAZ047>061-062-071-202200-
EASTERN PENNSYLVANIA

CITY           SKY/WX    TMP DP  RH WIND       PRES   REMARKS
Philadelphia   PTSUNNY   94  69  44 SW15      29.90F HX  99
Allentown      MOSUNNY   92  69  47 SW14G25   29.90F HX  97
Scranton       CLOUDY    84  68  58 SW7       29.91F
$$

CTZ002-004>006-009-010-012-RIZ004-006-007-MAZ004-011-015-202200-
SOUTHERN NEW ENGLAND
 IN CT

CITY           SKY/WX    TMP DP  RH WIND       PRES   REMARKS
Bradley INTL   PTSUNNY   91  66  43 W12       29.86F HX  93
Hartford       MOSUNNY   92  66  42 VRB7      29.84F HX  94
Danbury        MOSUNNY   89  68  49 SW9       29.90F HX  93
Wtrbury/Oxford MOSUNNY   88  66  48 W7        29.91F HX  90
Bridgeport     MOSUNNY   92  68  45 S10       29.86F HX  96
Meriden        MOSUNNY   90  68  48 VRB7      29.86F HX  94
New Haven      MOSUNNY   87  69  54 S9        29.87F HX  91
Chester        FAIR      88  68  51 CALM      29.90S HX  91
Groton         SUNNY     80  71  74 S7        29.87F
Wilimantic     PTSUNNY   91  70  49 SW5       29.86F HX  96

 IN RI

CITY           SKY/WX    TMP DP  RH WIND       PRES   REMARKS
Providence     PTSUNNY   90  69  50 SW13      29.86S HX  94
Block Island   MOSUNNY   80  75  84 SW15G23   29.89F
Westerly       SUNNY     86  72  62 S10       29.88F HX  92
 IN MA

CITY           SKY/WX    TMP DP  RH WIND       PRES   REMARKS
Boston         CLOUDY    91  66  43 W12G17    29.83F HX  93
Worcester      MOSUNNY   84  64  50 W10       29.91S
Westfield      PTSUNNY   91  67  44 W8        29.86F HX  94
Provincetown   PTSUNNY   84  67  56 S12       29.86F
Nantucket      MOSUNNY   78  73  84 SW13      29.89F
$$

ANZ330-335-338-340-345-350-353-355-202200-
COASTAL MARINE OBSERVATIONS


STATION/POSITION TIME  SKY/WX   TEMP    WIND        PRES    VSBY  WAVE
                                AIR SEA DIR/SP/G                  HT/PER
                 (UTC)          (F)     (DEG/KT/KT) (MB)    (MI)  (FT/S)
NY HARB ENTRANCE 1950            80 77  170/ 10/ 12 1011.9          2/14
20 S FIRE ISLAND 2050            78 77  200/ 10/ 14 1011.6          3/15
GREAT SOUTH BAY  2030            79 83  210/ 10/ 16   N/A
23 SSW MONTAUK P 1950            78 77              1013.1          3/ 5
15 E BARNEGAT LI 2030               80                N/A           3/14
HUDSON CANYON    1950            80 80  220/ 16/ 17 1012.8          3/15
KINGS POINT      2030            86 75  220/ 13/ 16 1011.4
EXECUTION ROCKS  2045            85     180/ 10/ 12   N/A
CENTRAL LI SOUND 2015            84     160/  4/  6   N/A           0
EASTERN LI SOUND NOT AVBL
ROBBINS REEF     2030                   180/ 10/ 14 1012.3
$$


>>>>>>>>>>>>>>>>>>>>>>>>>>>> KEY <<<<<<<<<<<<<<<<<<<<<<<<<<<
>                                                          <
>     SKY/WX - Sky Condition/Present Weather               <
>     TMP    - Temperature in Fahrenheit                   <
>     DP     - Dew Point in Fahrenheit                     <
>     RH     - Relative Humidity in Percent                <
>     WIND   - Direction (from) and Speed in MPH           <
>     PRES   - Mean Sea Level Pressure (inches of Hg)      <
>     WCI    - Wind Chill Index                            <
>     VSB    - VISIBILITY IN MILES                         <
>     HX     - HEAT INDEX                                  <
>     TC     - TEMPERATURE IN CELSIUS                      <
>     VRB    - VARIABLE WIND DIRECTION                     <
>                                                          <
>>>>>>>>>>>>>>>>>>>>>>>>>>>> KEY <<<<<<<<<<<<<<<<<<<<<<<<<<<




USA.gov is the U.S. government's official web portal to all federal, state and local government web resources and services.